chiptuner.ru alexa rank chart, chiptuner.ru alexa rank daily changes

chiptuner.ru alexa rank chart, chiptuner.ru alexa rank daily changes

chiptuner.ru
Actual rank:
72 215

RANK HISTORY

Date Rank Diff
2017/10/18 72 215 +757
2017/10/17 71 458 +110
2017/10/16 71 348 +93
2017/10/14 71 255 -113
2017/10/13 71 368 -429
2017/10/12 71 797 +174
2017/10/11 71 623 +527
2017/10/10 71 096 +64
2017/10/08 71 032 -211
2017/10/07 71 243 -29
2017/10/06 71 272 -32
2017/10/05 71 304 +299
2017/10/04 71 005 +1 585
2017/10/03 69 420 -307
2017/10/02 69 727 -123
2017/10/01 69 850 -160
2017/09/30 70 010 +517
2017/09/29 69 493 +607
2017/09/28 68 886 +584
2017/09/27 68 302 +528
2017/09/26 67 774 -25
2017/09/25 67 799 +43
2017/09/24 67 756 +225
2017/09/23 67 531 +641
2017/09/22 66 890 -47
2017/09/20 66 937 +79
2017/09/19 66 858 +68
2017/09/18 66 790 -1 202
2017/09/17 67 992 +72
2017/09/16 67 920 +38
2017/09/15 67 882 +118
2017/09/14 67 764 +324
2017/09/13 67 440 -19
2017/09/12 67 459 +297
2017/09/11 67 162 -210
2017/09/10 67 372 +230
2017/09/09 67 142 -20
2017/09/08 67 162 +108
2017/09/07 67 054 +560
2017/09/06 66 494 +142
2017/09/05 66 352 -61
2017/09/04 66 413 -1 431
2017/09/03 67 844 -60
2017/09/02 67 904 -53
2017/09/01 67 957 -51
2017/08/31 68 008 -106
2017/08/30 68 114 -146
2017/08/29 68 260 -532
2017/08/28 68 792 -51
2017/08/27 68 843 -536
2017/08/26 69 379 +13
2017/08/25 69 366 +98
2017/08/24 69 268 +265
2017/08/23 69 003 -145
2017/08/22 69 148 +45
2017/08/21 69 103 -32
2017/08/20 69 135 +228
2017/08/19 68 907

WIDGET FOR YOUR SITE

DOMAINS WITH THE NEAREST RANK

Domain Rank
slimwareutilities.com 72 210
eetgroup.com 72 211
paginasblancas.com.ar 72 212
rba.hr 72 213
motorcyclistonline.tv 72 214
chiptuner.ru 72 215
6speedonline.com 72 216
wemgehoert.de 72 217
cisfrectt.in 72 218
51jiecai.com 72 219
kktv.com 72 220

DOMAINS WITH THE NEAREST RANK BY TLD .ru

Domain Rank
stereo.ru 72 164
progorodsamara.ru 72 172
zozhnik.ru 72 174
stolichki.ru 72 193
numeroscop.ru 72 196
chiptuner.ru 72 215
modulbank.ru 72 239
miranimbus.ru 72 252
myadvices.ru 72 264
dhl.ru 72 304
pnevmat24.ru 72 315